TimePDT,TemperatureF,Dew PointF,Humidity,Sea Level PressureIn,VisibilityMPH,Wind Direction,Wind SpeedMPH,Gust SpeedMPH,PrecipitationIn,Events,Conditions,WindDirDegrees,DateUTC
12:00 AM,64.4,42.8,45,29.96,10.0,Calm,Calm,-,N/A,,Clear,0,2014-06-04 07:00:00
12:20 AM,62.6,42.8,48,29.96,10.0,Calm,Calm,-,N/A,,Clear,0,2014-06-04 07:20:00
12:40 AM,64.4,42.8,45,29.96,10.0,Calm,Calm,-,N/A,,Clear,0,2014-06-04 07:40:00
1:00 AM,62.6,42.8,48,29.96,10.0,Calm,Calm,-,N/A,,Clear,0,2014-06-04 08:00:00
1:20 AM,62.6,42.8,48,29.96,10.0,Calm,Calm,-,N/A,,Clear,0,2014-06-04 08:20:00
1:40 AM,62.6,41.0,45,29.96,10.0,Calm,Calm,-,N/A,,Clear,0,2014-06-04 08:40:00
2:00 AM,62.6,41.0,45,29.96,10.0,NNE,3.5,-,N/A,,Clear,20,2014-06-04 09:00:00
2:20 AM,62.6,41.0,45,29.95,10.0,Calm,Calm,-,N/A,,Clear,0,2014-06-04 09:20:00
2:40 AM,62.6,41.0,45,29.95,10.0,Calm,Calm,-,N/A,,Clear,0,2014-06-04 09:40:00
3:00 AM,62.6,41.0,45,29.95,10.0,NNE,3.5,-,N/A,,Clear,20,2014-06-04 10:00:00
3:20 AM,62.6,41.0,45,29.95,10.0,Calm,Calm,-,N/A,,Clear,0,2014-06-04 10:20:00
3:40 AM,62.6,39.2,42,29.95,10.0,NNE,3.5,-,N/A,,Clear,20,2014-06-04 10:40:00
4:00 AM,64.4,39.2,40,29.95,10.0,Calm,Calm,-,N/A,,Clear,0,2014-06-04 11:00:00
4:20 AM,62.6,39.2,42,29.94,10.0,Calm,Calm,-,N/A,,Clear,0,2014-06-04 11:20:00
4:40 AM,64.4,39.2,40,29.94,10.0,Calm,Calm,-,N/A,,Clear,0,2014-06-04 11:40:00
5:00 AM,64.4,37.4,37,29.93,10.0,Calm,Calm,-,N/A,,Clear,0,2014-06-04 12:00:00
5:20 AM,66.2,37.4,35,29.93,10.0,Calm,Calm,-,N/A,,Clear,0,2014-06-04 12:20:00
5:40 AM,64.4,37.4,37,29.93,10.0,North,3.5,-,N/A,,Clear,360,2014-06-04 12:40:00
6:00 AM,66.2,37.4,35,29.93,10.0,North,4.6,-,N/A,,Clear,360,2014-06-04 13:00:00
6:20 AM,66.2,37.4,35,29.93,10.0,Calm,Calm,-,N/A,,Clear,0,2014-06-04 13:20:00
6:40 AM,64.4,39.2,40,29.93,10.0,North,3.5,-,N/A,,Clear,350,2014-06-04 13:40:00
7:00 AM,64.4,41.0,42,29.93,10.0,Calm,Calm,-,N/A,,Clear,0,2014-06-04 14:00:00
7:20 AM,66.2,41.0,40,29.93,10.0,Calm,Calm,-,N/A,,Clear,0,2014-06-04 14:20:00
7:40 AM,68.0,41.0,37,29.93,10.0,East,3.5,-,N/A,,Clear,90,2014-06-04 14:40:00
8:00 AM,71.6,41.0,33,29.93,10.0,East,3.5,-,N/A,,Clear,90,2014-06-04 15:00:00
8:20 AM,73.4,39.2,29,29.94,10.0,Calm,Calm,-,N/A,,Clear,0,2014-06-04 15:20:00
8:40 AM,75.2,33.8,22,29.94,10.0,Calm,Calm,-,N/A,,Clear,0,2014-06-04 15:40:00
9:00 AM,75.2,41.0,29,29.94,10.0,Calm,Calm,-,N/A,,Clear,0,2014-06-04 16:00:00
9:20 AM,73.4,44.6,36,29.94,10.0,Calm,Calm,-,N/A,,Clear,0,2014-06-04 16:20:00
9:40 AM,75.2,41.0,29,29.94,10.0,Calm,Calm,-,N/A,,Clear,0,2014-06-04 16:40:00
10:00 AM,75.2,44.6,34,29.94,10.0,WNW,4.6,-,N/A,,Clear,290,2014-06-04 17:00:00
10:20 AM,77.0,46.4,34,29.94,10.0,West,5.8,-,N/A,,Clear,280,2014-06-04 17:20:00
10:40 AM,77.0,46.4,34,29.94,10.0,WNW,6.9,-,N/A,,Clear,290,2014-06-04 17:40:00
11:00 AM,77.0,44.6,32,29.95,10.0,WNW,6.9,-,N/A,,Clear,290,2014-06-04 18:00:00
11:20 AM,78.8,44.6,30,29.95,10.0,West,5.8,-,N/A,,Clear,270,2014-06-04 18:20:00
11:40 AM,78.8,44.6,30,29.95,10.0,West,6.9,-,N/A,,Clear,270,2014-06-04 18:40:00
12:00 PM,80.6,39.2,23,29.95,10.0,West,3.5,-,N/A,,Clear,260,2014-06-04 19:00:00
12:20 PM,80.6,41.0,24,29.95,10.0,West,6.9,-,N/A,,Clear,260,2014-06-04 19:20:00
12:40 PM,80.6,39.2,23,29.95,10.0,WNW,6.9,-,N/A,,Clear,300,2014-06-04 19:40:00
1:00 PM,80.6,37.4,21,29.95,10.0,WSW,5.8,-,N/A,,Partly Cloudy,250,2014-06-04 20:00:00
1:20 PM,80.6,41.0,24,29.95,10.0,West,8.1,-,N/A,,Clear,270,2014-06-04 20:20:00
1:40 PM,80.6,39.2,23,29.95,9.0,WNW,6.9,-,N/A,,Clear,290,2014-06-04 20:40:00
2:20 PM,82.4,42.8,25,29.95,10.0,West,8.1,-,N/A,,Clear,280,2014-06-04 21:20:00
2:40 PM,82.4,39.2,21,29.95,10.0,WSW,8.1,-,N/A,,Clear,250,2014-06-04 21:40:00
3:00 PM,82.4,39.2,21,29.95,10.0,West,6.9,-,N/A,,Clear,280,2014-06-04 22:00:00
3:20 PM,82.4,41.0,23,29.94,10.0,West,5.8,-,N/A,,Clear,270,2014-06-04 22:20:00
3:40 PM,82.4,41.0,23,29.94,10.0,WSW,4.6,-,N/A,,Clear,250,2014-06-04 22:40:00
4:00 PM,82.4,41.0,23,29.94,10.0,West,3.5,-,N/A,,Clear,270,2014-06-04 23:00:00
4:20 PM,82.4,37.4,20,29.94,10.0,NW,8.1,-,N/A,,Clear,310,2014-06-04 23:20:00
4:40 PM,82.4,39.2,21,29.94,10.0,WNW,9.2,-,N/A,,Clear,290,2014-06-04 23:40:00
5:00 PM,82.4,39.2,21,29.93,10.0,West,6.9,-,N/A,,Clear,280,2014-06-05 00:00:00
5:20 PM,84.2,35.6,18,29.93,10.0,WNW,5.8,-,N/A,,Clear,300,2014-06-05 00:20:00
6:00 PM,82.4,39.2,21,29.93,9.0,Calm,Calm,-,N/A,,Clear,0,2014-06-05 01:00:00
6:20 PM,82.4,39.2,21,29.92,10.0,WNW,6.9,-,N/A,,Clear,290,2014-06-05 01:20:00
6:40 PM,82.4,39.2,21,29.92,10.0,NW,3.5,-,N/A,,Clear,310,2014-06-05 01:40:00
7:00 PM,82.4,41.0,23,29.92,10.0,West,4.6,-,N/A,,Clear,280,2014-06-05 02:00:00
7:20 PM,82.4,41.0,23,29.92,10.0,NW,3.5,-,N/A,,Clear,310,2014-06-05 02:20:00
7:40 PM,80.6,42.8,26,29.92,10.0,Calm,Calm,-,N/A,,Clear,0,2014-06-05 02:40:00
8:00 PM,80.6,42.8,26,29.92,10.0,Calm,Calm,-,N/A,,Clear,0,2014-06-05 03:00:00
8:20 PM,77.0,44.6,32,29.92,10.0,Calm,Calm,-,N/A,,Clear,0,2014-06-05 03:20:00
8:40 PM,75.2,44.6,34,29.92,10.0,Calm,Calm,-,N/A,,Clear,0,2014-06-05 03:40:00
9:00 PM,73.4,44.6,36,29.92,10.0,Calm,Calm,-,N/A,,Clear,0,2014-06-05 04:00:00
9:20 PM,73.4,44.6,36,29.93,10.0,Calm,Calm,-,N/A,,Clear,0,2014-06-05 04:20:00
9:40 PM,73.4,44.6,36,29.93,10.0,Calm,Calm,-,N/A,,Clear,0,2014-06-05 04:40:00
10:20 PM,73.4,44.6,36,29.94,10.0,Calm,Calm,-,N/A,,Clear,0,2014-06-05 05:20:00
10:40 PM,73.4,44.6,36,29.94,10.0,Calm,Calm,-,N/A,,Clear,0,2014-06-05 05:40:00
11:00 PM,71.6,42.8,35,29.94,10.0,Calm,Calm,-,N/A,,Clear,0,2014-06-05 06:00:00
11:20 PM,71.6,42.8,35,29.93,10.0,Calm,Calm,-,N/A,,Clear,0,2014-06-05 06:20:00
11:40 PM,71.6,42.8,35,29.93,10.0,Calm,Calm,-,N/A,,Clear,0,2014-06-05 06:40:00